User: anonymous   Login
Location: Unspecified
(0.0000°N, 0.0000°E)
Time: 07:15:55
(UTC+00:00)
Language:

Himawari 2 - Orbit

View from above orbital plane
View from above orbital plane
View from above satellite
View from above satellite

Ground track
Ground track

The orbit data is extracted from the following two-line orbital elements,

1 12677U 81076A   17175.43292081 -.00000127 +00000-0 +00000-0 0  9996
2 12677 014.0785 335.6404 0011082 238.8255 032.9567 00.99557440099575
Epoch (UTC): 24 June 2017 10:23:24
Eccentricity: 0.0011082
inclination: 14.0785°
perigee height: 35941 km
apogee height: 36034 km
right ascension of ascending node: 335.6404°
argument of perigee: 238.8255°
revolutions per day: 0.99557440
mean anomaly at epoch: 32.9567°
orbit number at epoch: 9957

The dashed part of the orbit path shows where the satellite is in the earth's shadow,  

DLR